Weather History for Fort Stockton, TX

Change the Weather History Date:

Saturday, January 7, 2012

  Actual Average Record
Temperature  
Mean Temperature 45 °F -  
Max Temperature 55 °F 59 °F 82 °F (2006)
Min Temperature 35 °F 35 °F 18 °F (2014)
Degree Days  
Heating Degree Days 20    
Moisture  
Dew Point 27 °F    
Average Humidity 48    
Maximum Humidity 72    
Minimum Humidity 33    
Precipitation  
Precipitation 0.00 in - - ()
Sea Level Pressure  
Sea Level Pressure 30.01 in    
Wind  
Wind Speed 6 mph (NW)    
Max Wind Speed 12 mph    
Max Gust Speed -    
Visibility 10 miles    
Events      
Averages and records for this station are not official NWS values.
T = Trace of Precipitation, MM = Missing Value Source: NWS Daily Summary

Daily Weather History Graph

Daily Weather History Graph

Search for Another Location

Airport:

Trip Planner

Search our weather history database for the weather conditions in past years. The results will help you decide how hot, cold, wet, or windy it might be!

Date:

Astronomy

Jan. 07, 2012 Rise Set
Actual Time 7:50 AM CST 6:05 PM CST
Civil Twilight 7:24 AM CST 6:31 PM CST
Nautical Twilight 6:54 AM CST 7:01 PM CST
Astronomical Twilight 6:24 AM CST 7:30 PM CST
Moon 4:52 PM CST (1/7) 6:22 AM CST (1/7)
Length of Visible Light 11h 07m
Length of Day
10h 14m
Waxing Gibbous, 97% of the Moon is Illuminated
Jan 7
Waxing Gibbous
Jan 9
Full
Jan 16
Last Quarter
Jan 23
New
Jan 30
First Quarter

Hourly Weather History & Observations

Time (CST) Temp. Windchill Dew Point Humidity Pressure Visibility Wind Dir Wind Speed Gust Speed Precip Events Conditions
12:53 AM 46.0 °F 41.9 °F 18.0 °F 33% 29.97 in 10.0 mi North 8.1 mph - N/A   Clear
1:53 AM 45.0 °F 41.2 °F 24.1 °F 44% 29.99 in 10.0 mi NNE 6.9 mph - N/A   Clear
2:53 AM 42.1 °F 37.7 °F 25.0 °F 51% 30.02 in 10.0 mi NNW 6.9 mph - N/A   Clear
3:53 AM 39.0 °F 33.4 °F 25.0 °F 57% 30.03 in 10.0 mi WNW 8.1 mph - N/A   Clear
4:53 AM 37.0 °F 31.0 °F 26.1 °F 65% 30.05 in 10.0 mi WNW 8.1 mph - N/A   Clear
5:53 AM 36.0 °F 29.6 °F 26.1 °F 67% 30.06 in 10.0 mi WNW 8.1 mph - N/A   Clear
6:53 AM 35.1 °F 30.1 °F 26.1 °F 70% 30.08 in 10.0 mi WNW 5.8 mph - N/A   Clear
7:53 AM 35.1 °F 30.1 °F 27.0 °F 72% 30.09 in 10.0 mi WNW 5.8 mph - N/A   Clear
8:53 AM 37.9 °F 35.5 °F 28.0 °F 68% 30.11 in 10.0 mi West 3.5 mph - N/A   Clear
9:53 AM 42.1 °F 37.7 °F 28.0 °F 58% 30.13 in 10.0 mi West 6.9 mph - N/A   Clear
10:53 AM 45.0 °F - 28.0 °F 52% 30.14 in 10.0 mi Calm Calm - N/A   Clear
11:53 AM 48.9 °F - 28.0 °F 44% 30.10 in 10.0 mi Variable 3.5 mph - N/A   Clear
12:53 PM 50.0 °F - 28.0 °F 43% 30.05 in 10.0 mi Variable 3.5 mph - N/A   Clear
1:53 PM 54.0 °F - 28.0 °F 37% 30.00 in 10.0 mi WNW 3.5 mph - N/A   Clear
2:53 PM 54.0 °F - 28.9 °F 38% 29.97 in 10.0 mi Calm Calm - N/A   Clear
3:53 PM 55.9 °F - 28.9 °F 36% 29.96 in 10.0 mi East 4.6 mph - N/A   Clear
4:53 PM 55.9 °F - 28.9 °F 36% 29.96 in 10.0 mi ENE 4.6 mph - N/A   Clear
5:53 PM 53.1 °F - 28.9 °F 40% 29.96 in 10.0 mi East 3.5 mph - N/A   Clear
6:53 PM 51.1 °F - 28.9 °F 43% 29.96 in 10.0 mi ESE 5.8 mph - N/A   Clear
7:53 PM 51.1 °F - 28.0 °F 41% 29.94 in 10.0 mi ESE 8.1 mph - N/A   Clear
8:53 PM 48.9 °F - 28.0 °F 44% 29.93 in 10.0 mi SSE 6.9 mph - N/A   Clear
9:53 PM 50.0 °F - 28.0 °F 43% 29.91 in 10.0 mi SSE 11.5 mph - N/A   Clear
10:53 PM 52.0 °F - 27.0 °F 38% 29.91 in 10.0 mi South 11.5 mph - N/A   Clear
11:53 PM 52.0 °F - 27.0 °F 38% 29.91 in 10.0 mi South 6.9 mph - N/A   Clear